Regional Weather Roundup
Issued by NWS Northern Indiana

Home | Current Version | Previous Version | Graphics & Text | Print | Product List | Glossary On
Versions: 1 2 3 4 5 6 7 8 9 10 11 12 13 14 15 16 17 18 19 20 21 22 23 24 25 26 27 28 29 30 31 32 33 34 35 36 37 38 39 40 41 42 43 44 45 46 47 48 49 50
000
ASUS43 KIWX 282300
RWRIWX

KIWX WEATHER ROUNDUP
NATIONAL WEATHER SERVICE NORTHERN INDIANA
600 PM EST WED JAN 28 2015

NOTE: "FAIR" INDICATES FEW OR NO CLOUDS BELOW 12,000 FEET WITH NO
SIGNIFICANT WEATHER AND/OR OBSTRUCTIONS TO VISIBILITY.

* THESE STATIONS ARE NOT UNDER NWS QUALITY CONTROL. THEY ALSO MAY NOT
  REPORT WEATHER SUCH AS PRECIPITATION OR FOG.

INZ001>027-290000-
NORTHERN INDIANA

CITY           SKY/WX    TMP DP  RH WIND       PRES   REMARKS
GARY*          MOCLDY    34  19  55 SE14G25   30.08F WCI  24
SOUTH BEND     PTCLDY    29  15  56 SE17      30.14F WCI  17
GOSHEN         PTCLDY    27  15  61 SE12      30.16F WCI  17
ANGOLA*        CLEAR     21  12  68 S8        30.19F WCI  12
FORT WAYNE     CLOUDY    25  16  68 SE8       30.21F WCI  16
PERU/GRISSOM   PTCLDY    29  21  71 SE10      30.14F WCI  20

$$
INZ028>050-290000-
CENTRAL INDIANA

CITY           SKY/WX    TMP DP  RH WIND       PRES   REMARKS
LAFAYETTE      MOCLDY    34  19  54 SE8       30.12F WCI  27
KOKOMO*        PTCLDY    30  21  69 SE12      30.15F WCI  21
MUNCIE*        MOCLDY    30  19  63 SE8       30.19F WCI  22
INDIANAPOLIS   MOCLDY    31  17  56 SE10      30.15F WCI  22

$$
MIZ043>046-050>051-056>058-064>065-071>073-077>080-290000-
SOUTHWEST LOWER MICHIGAN

CITY           SKY/WX    TMP DP  RH WIND       PRES   REMARKS
BATTLE CREEK   MOCLDY    28   5  37 S14       30.17F WCI  17
BENTON HARBOR  PTCLDY    28  10  46 SE14G22   30.11F WCI  17
COLDWATER*     MOCLDY    25   9  50 SE9       30.18F WCI  15
HILLSDALE*     CLOUDY    23  11  58 CALM      30.18F
HOLLAND        MOCLDY    31  11  43 SE13      30.13F WCI  21
GRAND RAPIDS   CLOUDY    28  11  48 S7        30.14F WCI  21
KALAMAZOO      MOCLDY    27   7  42 SE7       30.16F WCI  19
STURGIS*       MOCLDY    25  12  58 SE12      30.17S WCI  14
THREE RIVERS*  FAIR      27   9  46 SE7       30.17F WCI  20

$$
OHZ001>008-015>018-024>025-290000-
NORTHWEST OHIO

CITY           SKY/WX    TMP DP  RH WIND       PRES   REMARKS
DEFIANCE       MOCLDY    25  14  63 S5        30.24F WCI  19
FINDLAY        MOCLDY    24  13  62 SE10      30.24F WCI  14
TOLEDO EXPRESS CLOUDY    23  13  65 SE3       30.26R
TOLEDO METCALF MOCLDY    23  13  65 S8        30.27F WCI  14
LIMA           MOCLDY    26  14  60 S10       30.23F WCI  16

$$
AND FOR LAKE MICHIGAN COASTAL AND OPEN LAKE BUOY OBSERVATIONS

STATION/POSITION TEMP    WIND        PRES    VSBY  WAVE
                 AIR SEA DIR/SP/G                  HT/PER
                 (F)     (DEG/KT/KT) (MB)    (MI)  (FT/S)
CALUMET HARBOR    33     140/ 14/ 18   N/A
MICHIGAN CITY     31     120/ 11/ 17   N/A
SAINT JOSEPH      30     170/  2/  9 1019.6F

$$
&&


USA.gov is the U.S. government's official web portal to all federal, state and local government web resources and services.